Wind_Speed
8 8 8 9 9 9 9 10 10 10 10 10 10 11 10 10 10 10 10 10 10 9 9 10 11 12 12 13 13 13 12 12 12 13 13 13 13 14 15 15 16 16 16
8 9 9 9 9 9 9 10 10 10 11 12 11 11 11 10 10 10 10 10 11 11 9 10 10 11 11 12 12 12 12 13 13 13 13 13 13 15 16 17 17 16 16
9 9 9 10 10 10 10 11 11 12 12 12 12 11 11 11 10 11 11 11 11 12 13 12 11 11 11 11 12 12 13 13 13 13 13 14 14 14 16 16 16 16 16
9 9 9 9 10 11 11 11 12 12 13 13 12 12 12 12 11 12 12 13 13 13 13 13 13 13 13 13 13 13 14 14 14 14 15 15 14 14 15 16 16 16 16
10 10 10 10 11 11 11 11 12 12 12 13 13 13 13 13 12 11 12 13 13 14 14 14 14 14 13 13 13 14 14 15 15 15 15 14 15 15 15 16 16 17 17
11 11 11 11 11 12 12 12 12 12 13 13 13 13 13 13 13 13 13 13 14 14 15 15 14 14 14 14 14 14 14 14 15 15 15 15 15 15 15 15 17 17 17
11 11 11 11 12 12 13 13 14 14 14 14 14 14 14 14 14 14 14 14 15 15 15 15 15 15 15 15 15 16 16 16 15 15 15 15 15 15 16 17 17 17 18
12 11 12 12 12 13 14 14 15 15 15 15 15 15 15 15 15 15 15 16 16 16 16 15 15 15 16 16 16 17 17 17 17 16 16 16 16 16 17 18 18 17 18
12 12 13 13 14 14 15 15 16 16 16 16 16 16 16 16 16 16 17 17 17 17 17 16 16 16 16 17 17 17 17 17 17 17 17 17 17 17 18 18 19 19 19
13 13 14 15 15 15 15 15 15 15 16 16 16 16 16 16 17 17 17 17 17 17 17 17 17 17 17 18 18 18 18 17 17 17 17 18 18 19 19 19 19 19 19
13 14 15 15 16 16 15 15 15 15 16 16 16 16 17 17 17 18 17 17 17 17 17 17 17 17 17 18 18 18 17 18 18 18 18 18 18 19 19 19 19 19 19
15 15 15 15 15 16 15 15 15 15 16 16 16 17 17 17 17 17 17 17 17 17 17 17 17 17 17 17 17 17 17 17 17 17 18 18 18 19 19 19 19 20 19
16 16 16 16 16 16 16 15 15 16 16 17 17 17 17 17 17 17 17 17 16 16 17 17 17 17 17 17 17 17 17 17 18 18 18 18 19 19 19 19 20 20 19
17 17 17 17 17 16 16 16 16 16 17 17 17 17 17 17 17 17 17 16 16 16 17 17 17 18 18 18 18 18 18 18 18 18 18 18 18 18 19 19 19 19 19
17 18 18 18 17 16 16 17 17 17 17 17 17 17 17 17 17 17 17 17 17 17 17 17 18 18 18 18 18 18 18 18 18 18 18 18 18 18 19 19 19 19 19
19 19 18 18 17 17 17 17 18 18 18 18 18 17 17 17 17 17 18 18 18 18 18 18 18 18 18 18 18 18 18 18 18 18 18 18 19 19 19 19 19 19 19
20 19 19 19 19 18 18 18 18 18 18 18 18 18 18 18 18 18 18 19 19 19 19 18 18 19 19 18 18 18 18 18 18 18 19 19 19 19 20 20 19 19 19
21 20 20 20 20 20 20 20 19 19 19 19 19 20 20 19 19 19 19 20 20 20 20 19 19 19 19 19 19 19 19 19 18 19 19 19 20 20 20 20 19 19 19
23 22 21 21 21 21 21 21 20 20 20 20 21 21 21 20 21 21 21 21 21 21 21 20 20 20 20 19 20 19 19 19 19 19 20 21 21 21 20 20 20 20 20
24 24 23 22 22 23 23 22 21 21 21 21 22 22 22 22 22 22 22 22 22 22 22 22 22 22 21 21 21 21 20 20 20 20 21 21 21 21 21 21 21 20 21
25 25 25 25 24 24 23 23 23 23 23 23 23 23 23 23 23 23 23 23 23 24 23 23 23 23 22 22 22 22 22 22 22 22 22 22 22 21 21 21 20 21 21
27 26 26 26 26 25 25 25 25 25 25 25 24 24 24 24 24 25 24 24 24 24 24 24 24 24 23 23 23 24 23 23 23 23 23 23 23 22 22 21 21 21 22
29 28 28 27 27 27 27 27 28 27 27 26 26 26 26 26 26 26 26 26 26 26 26 25 24 24 24 24 25 25 25 25 24 25 24 24 24 23 22 22 23 23 23
31 31 30 29 29 29 30 29 30 29 28 28 27 27 27 27 27 27 27 27 27 27 26 25 25 25 25 25 25 25 24 24 25 25 25 25 25 25 24 24 24 24 24
32 32 32 31 31 31 31 31 31 31 30 29 29 28 28 28 28 28 29 29 29 27 26 26 26 27 27 26 26 26 25 25 25 25 26 26 26 26 25 26 26 25 25
33 33 32 32 32 31 32 32 32 31 30 30 30 30 30 29 29 29 29 29 29 28 28 27 27 28 28 27 27 27 27 26 26 26 26 27 27 27 26 26 26 26 25
Wind_Direction
285 284 284 281 281 281 281 283 289 291 291 292 295 296 296 293 291 293 295 293 295 300 296 296 296 293 287 287 282 278 278 278 277 274 272 269 267 262 262 262 263 263 264
285 286 290 290 287 284 280 281 288 288 291 292 291 294 292 293 290 292 292 294 297 301 300 296 296 293 287 289 287 286 283 282 278 274 272 271 268 268 268 266 265 266 269
283 285 289 292 290 285 283 284 287 288 290 289 289 291 291 293 292 290 288 293 297 298 302 301 296 291 286 290 289 289 289 288 283 275 271 272 270 268 267 270 271 270 271
285 287 287 290 291 287 285 284 285 287 287 286 287 288 289 290 286 287 286 289 293 295 298 298 297 294 293 291 289 288 289 289 284 278 276 275 273 271 269 271 272 272 272
286 286 285 287 285 284 283 285 285 286 286 285 285 287 286 290 289 287 289 289 290 292 292 292 295 295 294 295 294 289 289 290 289 284 280 278 276 274 275 272 270 270 271
285 285 285 286 288 285 285 288 290 287 287 286 286 286 287 290 288 288 289 288 289 290 288 288 292 292 293 295 296 295 292 292 289 284 281 280 280 278 277 276 273 272 271
284 285 286 289 291 291 289 289 289 289 289 290 288 288 289 291 291 290 290 291 291 289 287 287 288 288 290 291 292 293 294 291 289 286 284 283 282 280 277 276 273 272 270
286 288 288 291 292 291 290 291 292 291 290 292 291 290 289 292 292 291 291 293 292 290 290 288 287 286 288 288 289 291 291 291 290 290 287 284 283 281 280 279 276 276 277
285 288 288 290 292 292 293 292 291 291 291 293 294 292 292 293 294 292 293 294 293 290 289 287 286 287 288 289 290 293 293 294 293 291 288 285 282 282 280 282 278 279 281
285 287 289 290 292 293 295 294 293 292 293 295 295 294 295 296 296 295 296 296 294 292 290 288 287 288 289 290 291 291 292 292 290 290 287 284 282 282 281 282 281 281 281
286 289 290 291 292 293 294 295 295 293 293 294 294 294 295 297 297 297 298 298 297 295 294 293 291 291 291 292 293 292 290 289 287 287 286 285 284 283 282 281 281 279 278
286 288 290 292 294 295 294 295 296 296 295 295 294 294 295 298 299 298 299 299 299 298 297 295 294 292 292 292 292 292 290 289 288 288 287 286 285 283 282 282 281 279 276
285 287 289 291 292 294 294 293 294 295 295 296 296 296 297 299 299 299 298 297 298 297 297 298 297 295 293 293 292 291 292 291 289 288 288 288 285 284 284 284 282 280 276
282 284 287 288 289 291 293 293 292 293 294 295 296 296 297 299 300 300 299 297 297 298 298 299 299 297 294 293 293 292 291 290 289 288 287 287 286 287 287 286 285 282 278
280 283 286 287 286 288 290 293 293 293 294 294 294 294 295 297 298 299 298 297 297 296 297 299 300 300 297 294 293 293 292 291 289 287 286 287 288 289 289 287 286 283 282
280 282 284 285 285 287 288 290 290 292 293 293 292 293 293 294 296 297 298 298 298 297 297 297 299 300 299 295 293 292 292 292 290 290 288 289 289 289 288 288 287 285 283
279 280 281 283 284 285 286 288 287 291 292 291 291 292 293 293 294 296 297 297 298 297 297 297 297 299 299 297 293 292 293 293 291 290 291 291 290 289 288 288 287 285 284
278 280 280 281 282 283 284 286 286 288 291 290 290 290 292 293 293 296 297 297 297 297 296 297 296 297 298 296 294 293 294 294 293 292 292 292 291 290 289 288 287 285 284
276 280 280 279 279 281 283 283 284 286 288 289 288 289 291 292 292 294 296 296 296 296 296 296 296 296 296 294 293 293 293 293 292 290 290 291 291 291 289 287 286 284 284
274 276 278 277 278 280 281 281 282 284 285 286 287 287 289 290 291 292 294 294 294 294 294 294 294 294 293 292 292 291 291 291 290 290 290 290 289 289 290 287 285 285 283
273 274 276 276 278 278 279 279 281 282 283 284 286 286 287 288 288 290 290 292 292 292 292 292 292 293 291 290 290 290 290 291 290 289 289 289 289 288 287 287 286 286 284
272 274 275 275 275 277 279 280 280 282 282 282 284 285 286 286 286 287 287 289 290 291 290 290 291 292 291 289 288 289 289 290 289 288 287 286 285 285 286 285 285 286 284
271 273 275 276 275 274 278 280 280 280 280 281 282 283 284 284 285 285 285 287 289 290 289 289 289 289 289 288 289 288 286 288 288 288 286 284 283 283 282 282 283 284 284
271 271 273 275 276 276 276 278 278 278 278 280 281 282 282 282 283 284 285 285 286 287 287 287 287 288 288 287 289 289 288 288 288 288 285 284 283 282 281 282 282 283 282
271 272 274 275 275 275 275 276 277 276 276 278 279 281 281 280 282 283 285 285 285 284 283 284 285 286 286 287 288 289 289 289 288 288 286 284 284 284 282 281 281 282 283
270 271 273 275 276 277 276 276 275 274 275 277 278 280 281 281 282 283 285 286 284 283 283 283 282 283 284 285 286 287 287 288 288 287 285 284 283 282 282 280 279 280 282
Height
5861 5861 5861 5860 5860 5860 5860 5859 5859 5859 5859 5858 5858 5857 5857 5857 5856 5855 5855 5855 5854 5852 5852 5852 5852 5851 5850 5850 5850 5850 5850 5850 5851 5851 5851 5851 5851 5852 5852 5852 5853 5853 5853
5859 5859 5859 5859 5858 5858 5858 5857 5857 5857 5857 5856 5856 5855 5855 5854 5854 5853 5853 5853 5852 5851 5850 5850 5850 5849 5848 5848 5848 5848 5847 5847 5847 5848 5848 5848 5848 5848 5848 5849 5849 5849 5849
5857 5857 5857 5857 5857 5856 5856 5855 5855 5855 5854 5854 5853 5853 5852 5852 5851 5851 5851 5850 5850 5849 5849 5848 5848 5847 5846 5846 5845 5845 5845 5845 5844 5844 5844 5844 5844 5844 5845 5845 5845 5845 5845
5856 5855 5855 5855 5855 5855 5854 5853 5853 5852 5852 5851 5851 5850 5850 5849 5849 5848 5848 5848 5847 5847 5846 5846 5845 5845 5844 5843 5843 5842 5842 5842 5841 5841 5841 5841 5841 5841 5841 5841 5841 5841 5841
5854 5853 5853 5853 5853 5853 5852 5851 5850 5850 5849 5849 5848 5848 5847 5847 5846 5846 5845 5845 5844 5844 5843 5843 5842 5842 5841 5840 5839 5839 5839 5838 5838 5837 5837 5837 5837 5837 5837 5837 5837 5837 5837
5852 5851 5851 5851 5851 5850 5850 5849 5848 5847 5846 5846 5845 5845 5844 5844 5843 5843 5842 5842 5841 5841 5840 5840 5839 5838 5838 5837 5836 5836 5835 5835 5834 5834 5833 5833 5833 5833 5833 5832 5832 5832 5833
5849 5849 5849 5849 5848 5848 5847 5846 5846 5845 5844 5843 5843 5842 5841 5841 5840 5839 5839 5838 5838 5837 5836 5836 5835 5835 5834 5833 5833 5832 5831 5831 5830 5830 5829 5829 5828 5828 5828 5828 5828 5828 5828
5847 5847 5846 5846 5846 5845 5844 5844 5843 5842 5841 5840 5840 5839 5838 5838 5836 5836 5835 5834 5834 5833 5832 5832 5831 5831 5830 5830 5829 5828 5827 5827 5826 5825 5825 5825 5824 5824 5824 5823 5823 5822 5823
5844 5844 5844 5843 5843 5842 5841 5840 5840 5839 5838 5837 5836 5836 5835 5834 5833 5832 5831 5830 5829 5828 5828 5827 5827 5826 5826 5825 5825 5824 5823 5822 5822 5821 5821 5820 5820 5819 5819 5819 5819 5818 5818
5841 5841 5841 5840 5839 5839 5838 5837 5836 5835 5834 5833 5832 5831 5831 5830 5829 5828 5827 5825 5824 5823 5823 5823 5822 5822 5821 5821 5820 5819 5819 5818 5817 5817 5816 5815 5815 5815 5814 5814 5813 5813 5813
5838 5838 5837 5837 5836 5835 5834 5833 5833 5832 5831 5830 5829 5828 5826 5825 5824 5823 5822 5821 5820 5819 5818 5818 5817 5817 5816 5816 5815 5815 5814 5813 5812 5812 5811 5810 5810 5809 5809 5808 5808 5808 5807
5835 5834 5834 5833 5833 5832 5831 5830 5829 5828 5827 5826 5825 5824 5822 5821 5820 5819 5818 5817 5816 5815 5814 5813 5812 5812 5811 5811 5810 5810 5809 5808 5808 5807 5806 5805 5805 5804 5803 5803 5803 5802 5802
5831 5831 5830 5830 5829 5828 5827 5826 5825 5824 5823 5822 5821 5819 5818 5817 5815 5814 5813 5812 5811 5810 5809 5808 5807 5806 5806 5805 5805 5804 5804 5803 5802 5802 5801 5800 5799 5799 5798 5797 5797 5796 5796
5827 5827 5826 5826 5825 5824 5823 5823 5822 5821 5819 5818 5817 5815 5814 5812 5811 5810 5809 5808 5807 5806 5805 5804 5802 5801 5800 5800 5799 5799 5798 5798 5797 5796 5796 5795 5794 5793 5793 5792 5791 5791 5791
5822 5822 5822 5821 5821 5820 5819 5819 5818 5817 5815 5814 5813 5811 5810 5808 5807 5805 5804 5803 5803 5801 5800 5799 5797 5796 5794 5794 5793 5793 5793 5792 5792 5791 5790 5790 5789 5788 5787 5787 5786 5786 5785
5818 5817 5817 5817 5816 5815 5815 5814 5813 5812 5811 5810 5808 5807 5805 5804 5802 5801 5800 5799 5797 5796 5795 5794 5792 5791 5789 5788 5788 5788 5787 5787 5786 5786 5785 5784 5784 5783 5782 5782 5781 5780 5780
5813 5812 5812 5812 5811 5811 5810 5809 5809 5807 5806 5805 5804 5802 5801 5800 5798 5797 5795 5794 5792 5791 5790 5789 5787 5786 5784 5783 5783 5782 5782 5781 5781 5780 5780 5779 5778 5778 5777 5776 5775 5775 5775
5807 5807 5807 5806 5806 5805 5805 5804 5803 5802 5801 5800 5799 5798 5796 5795 5793 5792 5791 5789 5788 5786 5785 5784 5782 5781 5780 5778 5778 5777 5777 5776 5775 5775 5775 5774 5773 5772 5771 5771 5770 5769 5769
5801 5801 5801 5800 5800 5800 5799 5799 5798 5797 5796 5795 5794 5792 5791 5790 5788 5787 5786 5784 5782 5781 5780 5778 5777 5776 5775 5773 5773 5772 5772 5771 5770 5770 5769 5768 5767 5767 5766 5765 5764 5764 5763
5795 5795 5795 5794 5794 5794 5793 5792 5792 5791 5790 5789 5788 5786 5785 5784 5783 5781 5780 5778 5777 5776 5774 5773 5772 5771 5769 5768 5767 5767 5766 5766 5765 5764 5763 5762 5762 5761 5760 5759 5759 5758 5757
5788 5788 5788 5788 5788 5787 5787 5786 5786 5785 5784 5783 5782 5780 5779 5778 5776 5775 5774 5773 5771 5770 5768 5767 5766 5765 5764 5763 5762 5761 5761 5760 5759 5758 5757 5756 5755 5755 5754 5753 5752 5752 5751
5781 5781 5781 5781 5781 5780 5780 5779 5779 5778 5777 5776 5775 5774 5772 5771 5770 5769 5768 5766 5765 5764 5762 5761 5760 5759 5757 5757 5756 5755 5754 5753 5753 5752 5751 5750 5749 5748 5748 5747 5746 5745 5744
5774 5774 5774 5773 5774 5773 5773 5772 5771 5770 5770 5769 5768 5766 5765 5764 5763 5762 5761 5760 5758 5757 5756 5755 5754 5752 5751 5751 5750 5749 5747 5747 5746 5745 5744 5743 5742 5741 5741 5740 5739 5738 5737
5765 5765 5765 5765 5765 5765 5765 5764 5763 5762 5762 5761 5760 5759 5758 5756 5755 5754 5753 5752 5751 5750 5749 5748 5747 5746 5745 5744 5743 5742 5740 5740 5739 5737 5736 5736 5735 5734 5733 5732 5732 5731 5730
5756 5756 5757 5757 5757 5757 5756 5755 5754 5754 5753 5753 5752 5751 5749 5748 5748 5746 5745 5744 5743 5742 5741 5740 5739 5738 5737 5736 5736 5735 5734 5733 5732 5731 5729 5728 5728 5727 5726 5725 5724 5723 5722
5746 5747 5747 5748 5748 5748 5747 5746 5746 5745 5745 5745 5744 5742 5741 5740 5739 5738 5737 5736 5735 5734 5733 5733 5732 5731 5730 5729 5728 5727 5726 5725 5724 5723 5722 5720 5719 5719 5718 5717 5716 5715 5714